| time (UTC) | temp C | wind direction | speed KPH | gust KPH | rain 1hr cm | rain 24hr cm | rain mn cm | humidity % | barometer mb |
| 20260510043608 | 12 | 92 | 3.2 | 9.7 | 0.00 | 0.00 | 0.00 | 73 | 1013.2 |
| 20260510043011 | 12 | 63 | 3.2 | 8.0 | 0.00 | 0.00 | 0.00 | 72 | 1012.8 |
| 20260510042453 | 12 | 63 | 3.2 | 8.0 | 0.00 | 0.00 | 0.00 | 72 | 1012.8 |
| 20260510041812 | 12 | 63 | 3.2 | 8.0 | 0.00 | 0.00 | 0.00 | 72 | 1012.8 |
| 20260510040924 | 12 | 97 | 3.2 | 9.7 | 0.00 | 0.00 | 0.00 | 71 | 1012.8 |
| 20260510040343 | 12 | 97 | 3.2 | 9.7 | 0.00 | 0.00 | 0.00 | 71 | 1012.8 |
| 20260510035747 | 12 | 101 | 4.8 | 11.3 | 0.00 | 0.00 | 0.00 | 70 | 1013.2 |
| 20260510035123 | 12 | 101 | 4.8 | 11.3 | 0.00 | 0.00 | 0.00 | 70 | 1013.2 |
| 20260510034541 | 12 | 101 | 4.8 | 11.3 | 0.00 | 0.00 | 0.00 | 70 | 1013.2 |
| 20260510033909 | 12 | 94 | 3.2 | 11.3 | 0.00 | 0.00 | 0.00 | 70 | 1012.8 |
| 20260510033316 | 12 | 94 | 3.2 | 11.3 | 0.00 | 0.00 | 0.00 | 70 | 1012.8 |
| 20260510031812 | 13 | 140 | 3.2 | 11.3 | 0.00 | 0.00 | 0.00 | 69 | 1012.5 |
| 20260510030611 | 13 | 68 | 3.2 | 6.4 | 0.00 | 0.00 | 0.00 | 68 | 1012.5 |
| 20260510030049 | 13 | 68 | 3.2 | 6.4 | 0.00 | 0.00 | 0.00 | 68 | 1012.5 |
| 20260510025434 | 13 | 84 | 1.6 | 6.4 | 0.00 | 0.00 | 0.00 | 68 | 1012.8 |
| 20260510024832 | 13 | 84 | 1.6 | 6.4 | 0.00 | 0.00 | 0.00 | 68 | 1012.8 |
| 20260510023940 | 13 | 79 | 3.2 | 9.7 | 0.00 | 0.00 | 0.00 | 67 | 1012.5 |
| 20260510022739 | 13 | 58 | 4.8 | 8.0 | 0.00 | 0.00 | 0.00 | 66 | 1012.5 |
| 20260510021510 | 14 | 82 | 1.6 | 6.4 | 0.00 | 0.00 | 0.00 | 65 | 1012.5 |
| 20260510020952 | 14 | 82 | 1.6 | 6.4 | 0.00 | 0.00 | 0.00 | 65 | 1012.5 |
| 20260510015740 | 14 | 0 | 0.0 | 8.0 | 0.00 | 0.00 | 0.00 | 64 | 1012.1 |
| 20260510015143 | 14 | 0 | 0.0 | 8.0 | 0.00 | 0.00 | 0.00 | 64 | 1012.1 |
| 20260510014511 | 14 | 66 | 3.2 | 8.0 | 0.00 | 0.00 | 0.00 | 63 | 1012.1 |
| 20260510013946 | 14 | 66 | 3.2 | 8.0 | 0.00 | 0.00 | 0.00 | 63 | 1012.1 |
| 20260510012725 | 14 | 41 | 3.2 | 8.0 | 0.00 | 0.00 | 0.00 | 63 | 1011.8 |
| 20260510012131 | 14 | 41 | 3.2 | 8.0 | 0.00 | 0.00 | 0.00 | 63 | 1011.8 |
| 20260510011556 | 14 | 41 | 3.2 | 8.0 | 0.00 | 0.00 | 0.00 | 63 | 1011.8 |
| 20260510010951 | 15 | 146 | 4.8 | 6.4 | 0.00 | 0.00 | 0.00 | 63 | 1011.5 |
| 20260510010348 | 15 | 146 | 4.8 | 6.4 | 0.00 | 0.00 | 0.00 | 63 | 1011.5 |
| 20260510005143 | 15 | 74 | 1.6 | 6.4 | 0.00 | 0.00 | 0.00 | 63 | 1010.8 |
| 20260510004550 | 15 | 74 | 1.6 | 6.4 | 0.00 | 0.00 | 0.00 | 63 | 1010.8 |
| 20260510003307 | 15 | 45 | 3.2 | 8.0 | 0.00 | 0.00 | 0.00 | 62 | 1010.8 |
| 20260510001226 | 15 | 32 | 1.6 | 9.7 | 0.00 | 0.00 | 0.00 | 61 | 1010.8 |
| 20260510000613 | 15 | 32 | 1.6 | 9.7 | 0.00 | 0.00 | 0.00 | 61 | 1010.8 |
| 20260509235444 | 15 | 99 | 3.2 | 6.4 | 0.00 | 0.00 | 0.00 | 60 | 1010.4 |
| 20260509234822 | 15 | 99 | 3.2 | 6.4 | 0.00 | 0.00 | 0.00 | 60 | 1010.4 |
| 20260509234250 | 15 | 0 | 0.0 | 9.7 | 0.00 | 0.00 | 0.00 | 59 | 1010.4 |
| 20260509233643 | 15 | 0 | 0.0 | 9.7 | 0.00 | 0.00 | 0.00 | 59 | 1010.4 |
| 20260509233013 | 16 | 166 | 4.8 | 4.8 | 0.00 | 0.00 | 0.00 | 60 | 1010.4 |
| 20260509232435 | 16 | 166 | 4.8 | 4.8 | 0.00 | 0.00 | 0.00 | 60 | 1010.4 |
| 20260509231852 | 16 | 166 | 4.8 | 4.8 | 0.00 | 0.00 | 0.00 | 60 | 1010.4 |
| 20260509231230 | 16 | 203 | 3.2 | 14.5 | 0.00 | 0.00 | 0.00 | 59 | 1010.8 |
| 20260509230613 | 16 | 203 | 3.2 | 14.5 | 0.00 | 0.00 | 0.00 | 59 | 1010.8 |
| 20260509230052 | 16 | 203 | 3.2 | 14.5 | 0.00 | 0.00 | 0.00 | 59 | 1010.8 |
| 20260509225413 | 16 | 177 | 12.9 | 12.9 | 0.00 | 0.00 | 0.00 | 57 | 1010.8 |
| 20260509224809 | 16 | 177 | 12.9 | 12.9 | 0.00 | 0.00 | 0.00 | 57 | 1010.8 |
| 20260509224244 | 16 | 29 | 6.4 | 12.9 | 0.00 | 0.00 | 0.00 | 57 | 1010.8 |
| 20260509223611 | 16 | 29 | 6.4 | 12.9 | 0.00 | 0.00 | 0.00 | 57 | 1010.8 |
| 20260509223041 | 16 | 29 | 6.4 | 12.9 | 0.00 | 0.00 | 0.00 | 57 | 1010.8 |
| 20260509222426 | 16 | 269 | 3.2 | 12.9 | 0.00 | 0.00 | 0.00 | 57 | 1010.8 |
| 20260509221241 | 16 | 143 | 1.6 | 6.4 | 0.00 | 0.00 | 0.00 | 59 | 1010.8 |
| 20260509220647 | 16 | 143 | 1.6 | 6.4 | 0.00 | 0.00 | 0.00 | 59 | 1010.8 |
| 20260509220045 | 16 | 143 | 1.6 | 6.4 | 0.00 | 0.00 | 0.00 | 59 | 1010.8 |
| 20260509215432 | 16 | 344 | 3.2 | 8.0 | 0.00 | 0.00 | 0.00 | 61 | 1010.8 |
| 20260509214832 | 16 | 344 | 3.2 | 8.0 | 0.00 | 0.00 | 0.00 | 61 | 1010.8 |
| 20260509213334 | 16 | 314 | 1.6 | 6.4 | 0.00 | 0.00 | 0.00 | 57 | 1010.8 |
| 20260509212738 | 17 | 3 | 3.2 | 4.8 | 0.00 | 0.00 | 0.00 | 58 | 1010.4 |
| 20260509212145 | 17 | 3 | 3.2 | 4.8 | 0.00 | 0.00 | 0.00 | 58 | 1010.4 |
| 20260509211542 | 17 | 3 | 3.2 | 4.8 | 0.00 | 0.00 | 0.00 | 58 | 1010.4 |
| 20260509210931 | 17 | 35 | 3.2 | 22.5 | 0.00 | 0.00 | 0.00 | 53 | 1010.1 |
| 20260509210318 | 17 | 35 | 3.2 | 22.5 | 0.00 | 0.00 | 0.00 | 53 | 1010.1 |
| 20260509205444 | 17 | 307 | 1.6 | 9.7 | 0.00 | 0.00 | 0.00 | 56 | 1010.4 |
| 20260509204825 | 17 | 307 | 1.6 | 9.7 | 0.00 | 0.00 | 0.00 | 56 | 1010.4 |
| 20260509204228 | 16 | 313 | 3.2 | 4.8 | 0.00 | 0.00 | 0.00 | 55 | 1010.1 |
| 20260509203647 | 16 | 313 | 3.2 | 4.8 | 0.00 | 0.00 | 0.00 | 55 | 1010.1 |
| 20260509203012 | 16 | 316 | 4.8 | 12.9 | 0.00 | 0.00 | 0.00 | 54 | 1010.1 |
| 20260509201823 | 16 | 316 | 4.8 | 12.9 | 0.00 | 0.00 | 0.00 | 54 | 1010.1 |
| 20260509200939 | 17 | 324 | 3.2 | 9.7 | 0.00 | 0.00 | 0.00 | 51 | 1010.1 |
| 20260509200309 | 17 | 324 | 3.2 | 9.7 | 0.00 | 0.00 | 0.00 | 51 | 1010.1 |
| 20260509195415 | 17 | 0 | 0.0 | 12.9 | 0.00 | 0.00 | 0.00 | 52 | 1010.1 |
| 20260509194841 | 17 | 0 | 0.0 | 12.9 | 0.00 | 0.00 | 0.00 | 52 | 1010.1 |
| 20260509194249 | 17 | 22 | 8.0 | 9.7 | 0.00 | 0.00 | 0.00 | 50 | 1010.1 |
| 20260509193009 | 17 | 307 | 1.6 | 9.7 | 0.00 | 0.00 | 0.00 | 50 | 1010.4 |
| 20260509192410 | 17 | 307 | 1.6 | 9.7 | 0.00 | 0.00 | 0.00 | 50 | 1010.4 |
| 20260509191840 | 17 | 307 | 1.6 | 9.7 | 0.00 | 0.00 | 0.00 | 50 | 1010.4 |
| 20260509190313 | 17 | 27 | 3.2 | 17.7 | 0.00 | 0.00 | 0.00 | 47 | 1010.1 |
| 20260509185409 | 17 | 182 | 1.6 | 20.9 | 0.00 | 0.00 | 0.00 | 50 | 1010.1 |
| 20260509184824 | 17 | 182 | 1.6 | 20.9 | 0.00 | 0.00 | 0.00 | 50 | 1010.1 |
| 20260509183936 | 17 | 2 | 4.8 | 16.1 | 0.00 | 0.00 | 0.00 | 52 | 1010.1 |
| 20260509183343 | 17 | 2 | 4.8 | 16.1 | 0.00 | 0.00 | 0.00 | 52 | 1010.1 |
| 20260509181838 | 16 | 151 | 6.4 | 17.7 | 0.00 | 0.00 | 0.00 | 54 | 1010.1 |
| 20260509180628 | 16 | 0 | 0.0 | 14.5 | 0.00 | 0.00 | 0.00 | 54 | 1010.1 |
| 20260509175453 | 16 | 145 | 11.3 | 20.9 | 0.00 | 0.00 | 0.00 | 54 | 1010.1 |
| 20260509174808 | 16 | 145 | 11.3 | 20.9 | 0.00 | 0.00 | 0.00 | 54 | 1010.1 |
| 20260509173310 | 16 | 141 | 4.8 | 29.0 | 0.00 | 0.00 | 0.00 | 54 | 1010.4 |
| 20260509172726 | 16 | 116 | 6.4 | 20.9 | 0.00 | 0.00 | 0.00 | 53 | 1010.4 |
| 20260509171510 | 15 | 162 | 3.2 | 16.1 | 0.00 | 0.00 | 0.00 | 56 | 1010.8 |
| 20260509170921 | 15 | 162 | 3.2 | 16.1 | 0.00 | 0.00 | 0.00 | 56 | 1010.8 |
| 20260509170323 | 15 | 162 | 3.2 | 16.1 | 0.00 | 0.00 | 0.00 | 56 | 1010.8 |
| 20260509165443 | 15 | 99 | 3.2 | 12.9 | 0.00 | 0.00 | 0.00 | 59 | 1010.8 |
| 20260509164828 | 15 | 99 | 3.2 | 12.9 | 0.00 | 0.00 | 0.00 | 59 | 1010.8 |
| 20260509163934 | 14 | 83 | 3.2 | 11.3 | 0.00 | 0.00 | 0.00 | 57 | 1010.8 |
| 20260509162115 | 14 | 0 | 0.0 | 6.4 | 0.00 | 0.00 | 0.00 | 58 | 1010.8 |
| 20260509161540 | 14 | 0 | 0.0 | 6.4 | 0.00 | 0.00 | 0.00 | 58 | 1010.8 |
| 20260509160930 | 13 | 167 | 1.6 | 6.4 | 0.00 | 0.00 | 0.00 | 60 | 1010.8 |
| 20260509160345 | 13 | 167 | 1.6 | 6.4 | 0.00 | 0.00 | 0.00 | 60 | 1010.8 |
| 20260509155420 | 13 | 0 | 0.0 | 6.4 | 0.00 | 0.00 | 0.00 | 60 | 1010.8 |
| 20260509153940 | 13 | 354 | 4.8 | 6.4 | 0.00 | 0.00 | 0.00 | 60 | 1011.1 |
| 20260509153324 | 13 | 354 | 4.8 | 6.4 | 0.00 | 0.00 | 0.00 | 60 | 1011.1 |
| 20260509152127 | 13 | 313 | 1.6 | 4.8 | 0.00 | 0.00 | 0.00 | 59 | 1011.1 |
| 20260509150915 | 13 | 357 | 1.6 | 4.8 | 0.00 | 0.00 | 0.00 | 58 | 1011.5 |
| 20260509150315 | 13 | 357 | 1.6 | 4.8 | 0.00 | 0.00 | 0.00 | 58 | 1011.5 |
| 20260509144832 | 14 | 359 | 3.2 | 4.8 | 0.00 | 0.00 | 0.00 | 56 | 1011.1 |
| 20260509144224 | 14 | 0 | 0.0 | 3.2 | 0.00 | 0.00 | 0.00 | 58 | 1010.8 |
| 20260509143636 | 14 | 0 | 0.0 | 3.2 | 0.00 | 0.00 | 0.00 | 58 | 1010.8 |
| 20260509143012 | 13 | 326 | 1.6 | 3.2 | 0.00 | 0.00 | 0.00 | 64 | 1010.8 |
| 20260509141828 | 13 | 326 | 1.6 | 3.2 | 0.00 | 0.00 | 0.00 | 64 | 1010.8 |
| 20260509140924 | 12 | 0 | 0.0 | 4.8 | 0.00 | 0.00 | 0.00 | 67 | 1010.8 |
| 20260509140344 | 12 | 0 | 0.0 | 4.8 | 0.00 | 0.00 | 0.00 | 67 | 1010.8 |
| 20260509135710 | 12 | 22 | 1.6 | 4.8 | 0.00 | 0.00 | 0.00 | 66 | 1010.8 |
| 20260509135112 | 12 | 22 | 1.6 | 4.8 | 0.00 | 0.00 | 0.00 | 66 | 1010.8 |
| 20260509134545 | 12 | 22 | 1.6 | 4.8 | 0.00 | 0.00 | 0.00 | 66 | 1010.8 |
| 20260509133914 | 12 | 311 | 1.6 | 3.2 | 0.00 | 0.00 | 0.00 | 66 | 1010.8 |
| 20260509132743 | 11 | 340 | 3.2 | 3.2 | 0.00 | 0.00 | 0.00 | 66 | 1011.1 |
| 20260509132132 | 11 | 340 | 3.2 | 3.2 | 0.00 | 0.00 | 0.00 | 66 | 1011.1 |
| 20260509131511 | 11 | 284 | 1.6 | 3.2 | 0.00 | 0.00 | 0.00 | 67 | 1010.8 |
| 20260509130917 | 11 | 284 | 1.6 | 3.2 | 0.00 | 0.00 | 0.00 | 67 | 1010.8 |
| 20260509130311 | 11 | 284 | 1.6 | 3.2 | 0.00 | 0.00 | 0.00 | 67 | 1010.8 |
| 20260509125721 | 11 | 0 | 0.0 | 3.2 | 0.00 | 0.00 | 0.00 | 68 | 1010.8 |
| 20260509125123 | 11 | 0 | 0.0 | 3.2 | 0.00 | 0.00 | 0.00 | 68 | 1010.8 |
| 20260509123935 | 11 | 0 | 0.0 | 3.2 | 0.00 | 0.00 | 0.00 | 69 | 1010.8 |
| 20260509123351 | 11 | 0 | 0.0 | 3.2 | 0.00 | 0.00 | 0.00 | 69 | 1010.8 |
| 20260509122746 | 10 | 190 | 1.6 | 4.8 | 0.00 | 0.00 | 0.00 | 69 | 1010.8 |
| 20260509122142 | 10 | 190 | 1.6 | 4.8 | 0.00 | 0.00 | 0.00 | 69 | 1010.8 |
| 20260509121510 | 10 | 0 | 0.0 | 6.4 | 0.00 | 0.00 | 0.00 | 68 | 1011.1 |
| 20260509120914 | 10 | 0 | 0.0 | 6.4 | 0.00 | 0.00 | 0.00 | 68 | 1011.1 |
| 20260509120320 | 10 | 0 | 0.0 | 6.4 | 0.00 | 0.00 | 0.00 | 68 | 1011.1 |
| 20260509114814 | 10 | 0 | 0.0 | 1.6 | 0.00 | 0.00 | 0.00 | 70 | 1011.1 |
| 20260509114227 | 10 | 0 | 0.0 | 3.2 | 0.00 | 0.00 | 0.00 | 69 | 1011.1 |
| 20260509113623 | 10 | 0 | 0.0 | 3.2 | 0.00 | 0.00 | 0.00 | 69 | 1011.1 |
| 20260509113044 | 10 | 0 | 0.0 | 3.2 | 0.00 | 0.00 | 0.00 | 69 | 1011.1 |
| 20260509112418 | 10 | 0 | 0.0 | 1.6 | 0.00 | 0.00 | 0.00 | 69 | 1011.1 |
| 20260509111819 | 10 | 0 | 0.0 | 1.6 | 0.00 | 0.00 | 0.00 | 69 | 1011.1 |
| 20260509110934 | 10 | 0 | 0.0 | 0.0 | 0.00 | 0.00 | 0.00 | 67 | 1011.1 |
| 20260509110313 | 10 | 0 | 0.0 | 0.0 | 0.00 | 0.00 | 0.00 | 67 | 1011.1 |
| 20260509104545 | 10 | 0 | 0.0 | 0.0 | 0.00 | 0.00 | 0.00 | 67 | 1011.1 |
| 20260509103940 | 10 | 0 | 0.0 | 0.0 | 0.00 | 0.00 | 0.00 | 65 | 1010.8 |
| 20260509103313 | 10 | 0 | 0.0 | 0.0 | 0.00 | 0.00 | 0.00 | 65 | 1010.8 |
| 20260509101839 | 10 | 0 | 0.0 | 3.2 | 0.00 | 0.00 | 0.00 | 65 | 1011.1 |
| 20260509100614 | 10 | 355 | 4.8 | 6.4 | 0.00 | 0.00 | 0.00 | 63 | 1011.1 |
| 20260509100011 | 11 | 139 | 3.2 | 6.4 | 0.00 | 0.00 | 0.00 | 56 | 1010.8 |
| 20260509095411 | 11 | 139 | 3.2 | 6.4 | 0.00 | 0.00 | 0.00 | 56 | 1010.8 |
| 20260509094820 | 11 | 139 | 3.2 | 6.4 | 0.00 | 0.00 | 0.00 | 56 | 1010.8 |
| 20260509093330 | 11 | 115 | 1.6 | 11.3 | 0.00 | 0.00 | 0.00 | 55 | 1010.8 |
| 20260509092416 | 11 | 157 | 1.6 | 11.3 | 0.00 | 0.00 | 0.00 | 55 | 1011.1 |
| 20260509091227 | 11 | 101 | 3.2 | 9.7 | 0.00 | 0.00 | 0.00 | 55 | 1011.1 |
| 20260509090613 | 11 | 101 | 3.2 | 9.7 | 0.00 | 0.00 | 0.00 | 55 | 1011.1 |
| 20260509090052 | 11 | 101 | 3.2 | 9.7 | 0.00 | 0.00 | 0.00 | 55 | 1011.1 |
| 20260509085421 | 11 | 107 | 3.2 | 11.3 | 0.00 | 0.00 | 0.00 | 55 | 1011.1 |
| 20260509084826 | 11 | 107 | 3.2 | 11.3 | 0.00 | 0.00 | 0.00 | 55 | 1011.1 |
| 20260509083918 | 11 | 102 | 4.8 | 12.9 | 0.00 | 0.00 | 0.00 | 55 | 1011.1 |
| 20260509083337 | 11 | 102 | 4.8 | 12.9 | 0.00 | 0.00 | 0.00 | 55 | 1011.1 |
| 20260509082747 | 11 | 133 | 6.4 | 11.3 | 0.00 | 0.00 | 0.00 | 54 | 1011.5 |
| 20260509080323 | 11 | 103 | 4.8 | 12.9 | 0.00 | 0.00 | 0.00 | 53 | 1011.5 |
| 20260509075754 | 11 | 129 | 4.8 | 12.9 | 0.00 | 0.00 | 0.00 | 53 | 1011.1 |
| 20260509075135 | 11 | 129 | 4.8 | 12.9 | 0.00 | 0.00 | 0.00 | 53 | 1011.1 |
| 20260509073323 | 11 | 198 | 4.8 | 14.5 | 0.00 | 0.00 | 0.00 | 53 | 1011.5 |
| 20260509072411 | 11 | 122 | 9.7 | 12.9 | 0.00 | 0.00 | 0.00 | 54 | 1011.1 |
| 20260509071817 | 11 | 122 | 9.7 | 12.9 | 0.00 | 0.00 | 0.00 | 54 | 1011.1 |
| 20260509071210 | 11 | 125 | 1.6 | 6.4 | 0.00 | 0.00 | 0.00 | 55 | 1011.5 |
| 20260509070615 | 11 | 125 | 1.6 | 6.4 | 0.00 | 0.00 | 0.00 | 55 | 1011.5 |
| 20260509070051 | 11 | 125 | 1.6 | 6.4 | 0.00 | 0.00 | 0.00 | 55 | 1011.5 |
| 20260509065434 | 11 | 112 | 1.6 | 8.0 | 0.00 | 0.00 | 0.00 | 53 | 1011.5 |
| 20260509064828 | 11 | 112 | 1.6 | 8.0 | 0.00 | 0.00 | 0.00 | 53 | 1011.5 |
| 20260509063913 | 11 | 76 | 1.6 | 6.4 | 0.00 | 0.00 | 0.00 | 54 | 1011.5 |
| 20260509063311 | 11 | 76 | 1.6 | 6.4 | 0.00 | 0.00 | 0.00 | 54 | 1011.5 |
| 20260509062719 | 11 | 117 | 3.2 | 6.4 | 0.00 | 0.00 | 0.00 | 54 | 1011.5 |
| 20260509062128 | 11 | 117 | 3.2 | 6.4 | 0.00 | 0.00 | 0.00 | 54 | 1011.5 |
| 20260509060912 | 12 | 0 | 0.0 | 3.2 | 0.00 | 0.00 | 0.00 | 53 | 1011.8 |
| 20260509060335 | 12 | 0 | 0.0 | 3.2 | 0.00 | 0.00 | 0.00 | 53 | 1011.8 |
| 20260509054513 | 12 | 0 | 0.0 | 1.6 | 0.00 | 0.00 | 0.00 | 49 | 1012.1 |
| 20260509053935 | 12 | 0 | 0.0 | 1.6 | 0.00 | 0.00 | 0.00 | 49 | 1012.1 |
| 20260509053346 | 12 | 0 | 0.0 | 1.6 | 0.00 | 0.00 | 0.00 | 49 | 1012.1 |
| 20260509052412 | 12 | 0 | 0.0 | 1.6 | 0.00 | 0.00 | 0.00 | 50 | 1012.1 |
| 20260509051851 | 12 | 0 | 0.0 | 1.6 | 0.00 | 0.00 | 0.00 | 50 | 1012.1 |
| 20260509050939 | 13 | 151 | 1.6 | 4.8 | 0.00 | 0.00 | 0.00 | 48 | 1012.1 |
| 20260509045724 | 13 | 0 | 0.0 | 3.2 | 0.00 | 0.00 | 0.00 | 47 | 1012.1 |
| 20260509045135 | 13 | 0 | 0.0 | 3.2 | 0.00 | 0.00 | 0.00 | 47 | 1012.1 |
| 20260509044542 | 13 | 0 | 0.0 | 3.2 | 0.00 | 0.00 | 0.00 | 47 | 1012.1 |
| 20260509043947 | 13 | 0 | 0.0 | 3.2 | 0.00 | 0.00 | 0.00 | 48 | 1012.1 |